Date,TemperatureHighF,TemperatureAvgF,TemperatureLowF,DewpointHighF,DewpointAvgF,DewpointLowF,HumidityHigh,HumidityAvg,HumidityLow,PressureMaxIn,PressureMinIn,WindSpeedMaxMPH,WindSpeedAvgMPH,GustSpeedMaxMPH,PrecipitationSumIn
2014-1-1,82,77,73,55,42,33,53,29,19,0.00,40.00,15,5,15,0.00
2014-1-2,86,78,73,71,48,30,64,39,19,0.00,40.00,17,4,12,0.00
2014-1-3,75,65,58,53,45,28,64,51,20,0.00,40.00,17,7,0,0.00
2014-1-4,67,64,34,54,51,34,63,57,57,0.00,40.00,8,4,0,0.00
2014-1-12,75,68,62,62,46,24,64,46,22,0.00,40.00,12,2,0,0.00
2014-1-13,80,75,69,66,44,32,61,35,20,0.00,40.00,16,3,0,0.00
2014-1-14,82,76,70,63,42,30,56,31,19,0.00,40.00,16,3,0,0.00
2014-1-15,70,65,58,54,34,23,64,34,21,0.00,40.00,12,2,0,0.00
2014-1-16,60,55,46,44,32,21,66,43,23,0.00,40.00,21,5,0,0.00
2014-1-17,68,54,40,49,38,24,66,56,45,0.00,40.00,9,1,0,0.00
2014-1-18,68,56,46,49,38,19,65,52,31,0.00,40.00,15,3,0,0.00
2014-1-19,70,55,39,48,38,25,66,54,28,0.00,40.00,13,2,0,0.00
2014-1-20,77,65,55,58,42,18,64,45,23,0.00,40.00,13,2,0,0.00
2014-1-21,74,66,61,60,35,22,63,34,22,0.00,40.00,15,3,0,0.00
2014-1-22,64,56,48,42,36,23,65,48,22,0.00,40.00,17,6,0,0.00
2014-1-23,71,56,41,57,40,27,65,56,30,0.00,40.00,12,4,0,0.00
2014-1-24,69,61,55,56,38,22,64,44,27,0.00,40.00,18,7,0,0.00
2014-1-25,76,64,52,62,39,16,64,42,23,0.00,40.00,12,1,0,0.00
2014-1-26,80,67,56,62,41,20,64,41,22,0.00,40.00,7,0,0,0.00
2014-1-27,85,73,62,69,41,23,65,34,19,0.00,40.00,10,1,0,0.00
2014-1-28,81,72,61,66,38,25,62,31,18,0.00,40.00,12,2,0,0.00
2014-1-29,75,68,64,36,31,28,28,25,20,0.00,40.00,16,3,0,0.00
2014-1-30,70,66,64,33,31,29,29,27,23,0.00,40.00,6,2,0,0.00
2014-1-31,81,78,70,46,38,36,29,24,21,0.00,40.00,12,4,5,0.00
2014-2-1,82,78,75,58,41,34,44,27,21,0.00,40.00,15,3,0,0.00
2014-2-2,82,78,75,64,44,33,55,32,22,0.00,40.00,15,3,0,0.00
2014-2-3,82,78,76,56,40,34,42,26,22,0.00,40.00,17,5,0,0.00
2014-2-4,82,78,76,64,45,35,54,32,22,0.00,40.00,13,4,0,0.00
2014-2-5,81,77,72,55,38,33,42,25,22,0.00,40.00,14,4,0,0.00
2014-2-6,82,75,71,46,38,35,31,26,21,0.00,40.00,5,1,0,0.00
2014-2-7,83,73,65,68,41,30,61,32,22,0.00,40.00,9,3,0,0.00
2014-2-8,83,74,69,62,37,32,50,27,19,0.00,40.00,12,3,4,0.00
2014-2-9,80,70,64,65,38,27,61,33,23,0.00,40.00,11,4,0,0.00
2014-2-10,82,72,63,69,48,28,66,46,23,0.00,40.00,7,2,0,0.00
2014-2-11,82,75,70,68,52,36,65,45,26,0.00,40.00,13,3,0,0.00
2014-2-12,82,73,65,70,43,28,66,36,23,0.00,40.00,21,5,0,0.00
2014-2-13,72,66,55,59,43,29,68,46,25,0.00,40.00,18,7,0,0.00
2014-2-14,70,59,46,57,42,16,68,53,29,0.00,40.00,11,2,0,0.00
2014-2-15,79,66,54,64,46,21,67,50,26,0.00,40.00,19,4,0,0.00
2014-2-16,80,64,49,64,49,23,67,59,33,0.00,40.00,9,1,0,0.00
2014-2-17,80,69,57,64,54,32,66,59,38,0.00,40.00,8,1,0,0.00
2014-2-18,81,73,62,68,54,25,67,54,24,0.00,40.00,7,2,0,0.00
2014-2-19,81,75,70,68,58,41,66,56,34,0.00,40.00,11,3,0,0.00
2014-2-20,83,77,73,70,57,41,67,51,27,0.00,40.00,13,5,0,0.00
2014-2-21,83,79,77,66,46,36,58,33,23,0.00,40.00,22,8,0,0.00
2014-2-22,84,77,70,71,45,34,64,33,22,0.00,40.00,15,3,0,0.00
2014-2-23,84,77,68,67,41,36,57,29,21,0.00,40.00,13,3,0,0.00
2014-2-24,88,78,69,75,48,34,67,38,23,0.00,40.00,11,2,0,0.00
2014-2-25,87,76,68,74,47,34,67,37,23,0.00,40.00,8,1,0,0.00
2014-2-26,86,76,66,70,50,29,65,42,19,0.00,40.00,17,4,0,0.00
2014-2-27,80,72,66,67,42,27,67,36,22,0.00,40.00,14,5,0,0.00
2014-2-28,73,65,59,61,40,26,67,41,25,0.00,40.00,12,3,0,0.00
2014-3-1,80,71,59,67,50,24,67,49,25,0.00,40.00,10,3,0,0.00
2014-3-2,80,74,69,68,61,54,68,64,57,0.00,40.00,11,2,0,0.00
2014-3-3,81,74,64,68,55,27,68,54,24,0.00,40.00,16,3,0,0.00
2014-3-4,82,73,63,70,50,27,67,46,24,0.00,40.00,10,2,0,0.00
2014-3-5,83,75,66,70,46,30,66,38,24,0.00,40.00,18,4,0,0.00
2014-3-6,82,73,68,62,38,31,52,29,23,0.00,40.00,19,4,0,0.00
2014-3-7,78,72,68,66,47,33,68,44,25,0.00,40.00,18,6,0,0.00
2014-3-10,84,73,65,69,50,29,68,47,25,0.00,40.00,10,3,0,0.00
2014-3-11,81,72,62,69,50,29,68,48,27,0.00,40.00,17,4,0,0.00
2014-3-12,86,76,71,72,49,33,68,41,24,0.00,40.00,16,5,0,0.00
2014-3-13,75,67,63,58,49,33,68,54,25,0.00,40.00,20,8,0,0.00
2014-3-14,74,68,63,60,56,50,69,65,58,0.00,40.00,13,4,0,0.00
2014-3-15,81,73,68,68,61,54,68,65,58,0.00,40.00,16,3,0,0.00
2014-3-16,81,75,71,69,61,48,68,61,40,0.00,40.00,20,8,0,0.00
2014-3-17,83,78,74,71,49,37,67,37,25,0.00,40.00,19,8,0,0.00
2014-3-18,80,74,67,66,51,32,68,46,25,0.00,40.00,28,6,0,0.00
2014-3-19,82,73,63,69,52,28,69,51,26,0.00,40.00,8,2,0,0.00
2014-3-20,83,75,65,70,51,30,67,45,25,0.00,40.00,11,2,0,0.00
2014-3-21,84,76,67,70,51,31,63,42,24,0.00,40.00,13,4,0,0.00
2014-3-22,80,77,74,58,48,36,48,36,25,0.00,40.00,25,6,0,0.00
2014-3-23,89,77,67,74,50,31,69,42,26,0.00,40.00,10,1,0,0.00
2014-3-24,76,72,65,46,37,32,36,28,25,0.00,40.00,14,3,0,0.00
2014-3-25,82,72,64,70,48,34,68,45,25,0.00,40.00,17,6,0,0.00
2014-3-26,68,61,53,58,48,35,69,63,41,0.00,40.00,17,8,0,0.00
2014-3-27,76,70,58,64,57,34,69,65,40,0.00,40.00,16,6,0,0.00
2014-3-28,81,76,73,70,61,45,69,60,33,0.00,40.00,18,7,0,0.00
2014-3-29,83,77,71,59,43,35,45,30,26,0.00,40.00,17,7,0,0.00
2014-3-30,81,72,64,64,46,33,68,41,27,0.00,40.00,14,4,0,0.00
2014-3-31,80,68,57,67,53,33,68,59,41,0.00,40.00,9,3,0,0.00
2014-4-1,78,72,70,65,60,57,69,67,63,0.00,40.00,5,0,6,0.00
2014-4-2,80,74,68,68,60,50,69,63,53,0.00,40.00,10,2,0,0.00
2014-4-3,81,76,71,70,63,54,69,65,53,0.00,40.00,14,4,0,0.00
2014-4-4,83,77,73,71,63,51,69,62,45,0.00,40.00,17,5,0,0.00
2014-4-5,84,77,70,72,56,33,69,51,26,0.00,40.00,11,3,0,0.00
2014-4-6,85,77,69,73,55,33,69,49,26,0.00,40.00,14,4,0,0.00
2014-4-7,86,80,76,75,53,41,69,41,25,0.00,40.00,20,8,0,0.00
2014-4-8,90,79,69,78,50,33,70,39,26,0.00,40.00,27,8,0,0.00
2014-4-9,79,71,63,63,53,33,68,54,26,0.00,40.00,21,6,0,0.00
2014-4-10,80,73,69,64,59,54,69,62,49,0.00,40.00,13,3,0,0.00
2014-4-11,78,73,71,64,50,35,68,47,26,0.00,40.00,14,3,0,0.00
2014-4-12,82,76,71,70,58,43,70,55,35,0.00,40.00,10,3,0,0.00
2014-4-13,81,77,74,64,51,39,58,41,26,0.00,40.00,12,5,0,0.00
2014-4-14,85,80,76,72,50,39,66,36,26,0.00,40.00,16,6,0,0.00
2014-4-15,86,80,75,72,48,40,64,34,26,0.00,40.00,21,5,0,0.00
2014-4-16,79,75,71,59,44,36,52,34,27,0.00,40.00,18,6,0,0.00